| time (UTC) | temp F | wind direction | speed knots | gust knots | rain 1hr in | rain 24hr in | rain mn in | humidity % | barometer mb |
| 20260507100233 | 46 | 125 | 0.0 | 0.0 | 0.00 | 0.00 | 0.00 | 93 | 1012.3 |
| 20260507100127 | 47 | 70 | 0.0 | 0.0 | 0.00 | 0.00 | 0.00 | 93 | 1012.4 |
| 20260507095914 | 46 | 100 | 0.0 | 0.0 | 0.00 | 0.00 | 0.00 | 93 | 1012.3 |
| 20260507095701 | 46 | 95 | 0.0 | 0.0 | 0.00 | 0.00 | 0.00 | 93 | 1012.5 |
| 20260507095554 | 46 | 105 | 0.0 | 0.0 | 0.00 | 0.00 | 0.00 | 93 | 1012.2 |
| 20260507095448 | 46 | 110 | 0.0 | 0.0 | 0.00 | 0.00 | 0.00 | 93 | 1012.1 |
| 20260507095341 | 47 | 80 | 0.0 | 0.0 | 0.00 | 0.00 | 0.00 | 93 | 1012.3 |
| 20260507095235 | 47 | 80 | 0.0 | 0.0 | 0.00 | 0.00 | 0.00 | 93 | 1012.2 |
| 20260507095128 | 46 | 50 | 0.0 | 0.0 | 0.00 | 0.00 | 0.00 | 93 | 1012.3 |
| 20260507094915 | 46 | 70 | 0.0 | 0.0 | 0.00 | 0.00 | 0.00 | 93 | 1012.2 |
| 20260507094703 | 47 | 110 | 0.0 | 0.0 | 0.00 | 0.00 | 0.00 | 93 | 1012.1 |
| 20260507094556 | 46 | 215 | 0.0 | 0.0 | 0.00 | 0.00 | 0.00 | 93 | 1012.1 |
| 20260507094449 | 47 | 65 | 0.0 | 0.0 | 0.00 | 0.00 | 0.00 | 93 | 1012.1 |
| 20260507094343 | 47 | 100 | 0.0 | 0.0 | 0.00 | 0.00 | 0.00 | 93 | 1012.1 |
| 20260507094236 | 46 | 80 | 0.0 | 0.0 | 0.00 | 0.00 | 0.00 | 93 | 1012.2 |
| 20260507094024 | 47 | 110 | 0.0 | 0.0 | 0.00 | 0.00 | 0.00 | 93 | 1012.0 |
| 20260507093916 | 47 | 130 | 0.0 | 0.0 | 0.00 | 0.00 | 0.00 | 93 | 1012.0 |
| 20260507093812 | 46 | 120 | 0.0 | 0.0 | 0.00 | 0.00 | 0.00 | 93 | 1012.0 |
| 20260507093704 | 46 | 70 | 0.0 | 0.0 | 0.00 | 0.00 | 0.00 | 93 | 1012.0 |
| 20260507093557 | 46 | 165 | 0.0 | 0.0 | 0.00 | 0.00 | 0.00 | 93 | 1012.1 |
| 20260507093451 | 46 | 95 | 0.0 | 0.0 | 0.00 | 0.00 | 0.00 | 93 | 1012.0 |
| 20260507093344 | 46 | 100 | 0.0 | 0.0 | 0.00 | 0.00 | 0.00 | 93 | 1012.0 |
| 20260507093238 | 47 | 80 | 0.0 | 0.0 | 0.00 | 0.00 | 0.00 | 93 | 1012.0 |
| 20260507093132 | 47 | 95 | 0.0 | 0.0 | 0.00 | 0.00 | 0.00 | 93 | 1012.0 |
| 20260507093024 | 46 | 80 | 0.0 | 0.0 | 0.00 | 0.00 | 0.00 | 93 | 1011.8 |
| 20260507092918 | 47 | 50 | 0.0 | 0.0 | 0.00 | 0.00 | 0.00 | 93 | 1011.9 |
| 20260507092705 | 47 | 125 | 0.0 | 0.0 | 0.00 | 0.00 | 0.00 | 93 | 1011.8 |
| 20260507092558 | 47 | 55 | 0.0 | 0.0 | 0.00 | 0.00 | 0.00 | 93 | 1011.9 |
| 20260507092452 | 47 | 55 | 0.0 | 0.0 | 0.00 | 0.00 | 0.00 | 93 | 1011.8 |
| 20260507092346 | 46 | 75 | 0.0 | 0.0 | 0.00 | 0.00 | 0.00 | 93 | 1011.8 |
| 20260507092240 | 47 | 75 | 0.0 | 0.0 | 0.00 | 0.00 | 0.00 | 93 | 1011.8 |
| 20260507092134 | 47 | 60 | 0.0 | 0.0 | 0.00 | 0.00 | 0.00 | 93 | 1011.9 |
| 20260507092026 | 47 | 75 | 0.0 | 0.0 | 0.00 | 0.00 | 0.00 | 93 | 1011.7 |
| 20260507091814 | 47 | 100 | 0.0 | 0.0 | 0.00 | 0.00 | 0.00 | 93 | 1011.7 |
| 20260507091706 | 47 | 60 | 0.0 | 0.0 | 0.00 | 0.00 | 0.00 | 93 | 1011.7 |
| 20260507091600 | 46 | 85 | 0.0 | 0.0 | 0.00 | 0.00 | 0.00 | 93 | 1011.7 |
| 20260507091348 | 47 | 120 | 3.5 | 0.0 | 0.00 | 0.00 | 0.00 | 93 | 1011.6 |
| 20260507091240 | 47 | 135 | 0.0 | 0.0 | 0.00 | 0.00 | 0.00 | 93 | 1011.7 |
| 20260507091134 | 47 | 70 | 0.0 | 0.0 | 0.00 | 0.00 | 0.00 | 93 | 1011.8 |
| 20260507091027 | 47 | 45 | 0.0 | 0.0 | 0.00 | 0.00 | 0.00 | 93 | 1011.6 |
| 20260507090921 | 47 | 155 | 0.0 | 0.0 | 0.00 | 0.00 | 0.00 | 93 | 1011.7 |
| 20260507090815 | 47 | 65 | 15.6 | 0.0 | 0.00 | 0.00 | 0.00 | 93 | 1011.5 |
| 20260507090708 | 47 | 60 | 0.0 | 0.0 | 0.00 | 0.00 | 0.00 | 93 | 1011.5 |
| 20260507090601 | 47 | 85 | 0.0 | 0.0 | 0.00 | 0.00 | 0.00 | 93 | 1011.5 |
| 20260507090456 | 47 | 75 | 0.0 | 0.0 | 0.00 | 0.00 | 0.00 | 93 | 1011.6 |
| 20260507090351 | 47 | 160 | 0.0 | 0.0 | 0.00 | 0.00 | 0.00 | 93 | 1011.4 |
| 20260507090245 | 48 | 55 | 0.0 | 0.0 | 0.00 | 0.00 | 0.00 | 93 | 1011.5 |
| 20260507090137 | 48 | 90 | 0.0 | 0.0 | 0.00 | 0.00 | 0.00 | 93 | 1011.4 |
| 20260507090029 | 48 | 75 | 0.0 | 0.0 | 0.00 | 0.00 | 0.00 | 93 | 1011.4 |
| 20260507085923 | 48 | 150 | 0.0 | 0.0 | 0.00 | 0.00 | 0.00 | 93 | 1011.4 |
| 20260507085816 | 48 | 130 | 0.0 | 0.0 | 0.00 | 0.00 | 0.00 | 93 | 1011.3 |
| 20260507085712 | 48 | 45 | 0.0 | 0.0 | 0.00 | 0.00 | 0.00 | 93 | 1011.5 |
| 20260507085603 | 48 | 60 | 0.0 | 0.0 | 0.00 | 0.00 | 0.00 | 93 | 1011.3 |
| 20260507085456 | 47 | 90 | 0.0 | 0.0 | 0.00 | 0.00 | 0.00 | 93 | 1011.2 |
| 20260507085244 | 47 | 90 | 0.0 | 0.0 | 0.00 | 0.00 | 0.00 | 92 | 1011.3 |
| 20260507085137 | 48 | 75 | 0.0 | 0.0 | 0.00 | 0.00 | 0.00 | 93 | 1011.4 |
| 20260507085031 | 47 | 95 | 0.0 | 0.0 | 0.00 | 0.00 | 0.00 | 93 | 1011.3 |
| 20260507084924 | 48 | 110 | 0.0 | 0.0 | 0.00 | 0.00 | 0.00 | 93 | 1011.2 |
| 20260507084712 | 48 | 115 | 0.0 | 0.0 | 0.00 | 0.00 | 0.00 | 93 | 1011.3 |
| 20260507084604 | 48 | 95 | 0.0 | 0.0 | 0.00 | 0.00 | 0.00 | 93 | 1011.2 |
| 20260507084458 | 48 | 80 | 0.0 | 0.0 | 0.00 | 0.00 | 0.00 | 93 | 1011.1 |
| 20260507084352 | 48 | 170 | 0.0 | 0.0 | 0.00 | 0.00 | 0.00 | 93 | 1011.1 |
| 20260507084032 | 48 | 45 | 0.0 | 0.0 | 0.00 | 0.00 | 0.00 | 93 | 1011.0 |
| 20260507083926 | 48 | 70 | 0.0 | 0.0 | 0.00 | 0.00 | 0.00 | 93 | 1010.9 |
| 20260507083820 | 48 | 50 | 0.0 | 0.0 | 0.00 | 0.00 | 0.00 | 93 | 1011.0 |
| 20260507083606 | 48 | 60 | 0.0 | 0.0 | 0.00 | 0.00 | 0.00 | 93 | 1011.0 |
| 20260507083459 | 48 | 75 | 0.0 | 0.0 | 0.00 | 0.00 | 0.00 | 93 | 1010.9 |
| 20260507083353 | 48 | 75 | 5.2 | 0.0 | 0.00 | 0.00 | 0.00 | 93 | 1011.0 |
| 20260507083247 | 48 | 50 | 0.0 | 0.0 | 0.00 | 0.00 | 0.00 | 93 | 1010.8 |
| 20260507083140 | 48 | 50 | 0.0 | 0.0 | 0.00 | 0.00 | 0.00 | 93 | 1010.9 |
| 20260507083033 | 48 | 90 | 0.0 | 0.0 | 0.00 | 0.00 | 0.00 | 93 | 1010.8 |
| 20260507082927 | 48 | 50 | 0.0 | 0.0 | 0.00 | 0.00 | 0.00 | 93 | 1010.8 |
| 20260507082714 | 48 | 55 | 0.0 | 0.0 | 0.00 | 0.00 | 0.00 | 93 | 1010.9 |
| 20260507082607 | 48 | 95 | 0.0 | 0.0 | 0.00 | 0.00 | 0.00 | 93 | 1010.9 |
| 20260507082501 | 48 | 85 | 0.0 | 0.0 | 0.00 | 0.00 | 0.00 | 93 | 1010.8 |
| 20260507082354 | 48 | 75 | 0.0 | 0.0 | 0.00 | 0.00 | 0.00 | 93 | 1010.8 |
| 20260507082248 | 48 | 60 | 0.0 | 0.0 | 0.00 | 0.00 | 0.00 | 93 | 1010.7 |
| 20260507082141 | 48 | 50 | 0.0 | 0.0 | 0.00 | 0.00 | 0.00 | 93 | 1010.7 |
| 20260507081929 | 48 | 150 | 0.0 | 0.0 | 0.00 | 0.00 | 0.00 | 93 | 1010.8 |
| 20260507081716 | 48 | 110 | 0.0 | 0.0 | 0.00 | 0.00 | 0.00 | 93 | 1010.5 |
| 20260507081609 | 48 | 80 | 0.0 | 0.0 | 0.00 | 0.00 | 0.00 | 93 | 1010.7 |
| 20260507081502 | 48 | 145 | 0.0 | 0.0 | 0.00 | 0.00 | 0.00 | 93 | 1010.7 |
| 20260507081356 | 48 | 75 | 1.7 | 0.0 | 0.00 | 0.00 | 0.00 | 93 | 1010.5 |
| 20260507081249 | 48 | 145 | 0.0 | 0.0 | 0.00 | 0.00 | 0.00 | 93 | 1010.7 |
| 20260507081036 | 48 | 85 | 0.0 | 0.0 | 0.00 | 0.00 | 0.00 | 93 | 1010.5 |
| 20260507080931 | 48 | 115 | 0.0 | 0.0 | 0.00 | 0.00 | 0.00 | 93 | 1010.5 |
| 20260507080825 | 48 | 130 | 0.0 | 0.0 | 0.00 | 0.00 | 0.00 | 93 | 1010.6 |
| 20260507080717 | 48 | 75 | 0.0 | 0.0 | 0.00 | 0.00 | 0.00 | 93 | 1010.6 |
| 20260507080610 | 48 | 50 | 0.0 | 0.0 | 0.00 | 0.00 | 0.00 | 93 | 1010.5 |
| 20260507080504 | 48 | 80 | 0.0 | 0.0 | 0.00 | 0.00 | 0.00 | 93 | 1010.5 |
| 20260507080359 | 48 | 120 | 0.0 | 0.0 | 0.00 | 0.00 | 0.00 | 93 | 1010.5 |
| 20260507080144 | 48 | 60 | 0.0 | 0.0 | 0.00 | 0.00 | 0.00 | 93 | 1010.2 |
| 20260507080038 | 48 | 120 | 0.0 | 0.0 | 0.00 | 0.00 | 0.00 | 93 | 1010.3 |
| 20260507075932 | 48 | 100 | 0.0 | 0.0 | 0.00 | 0.00 | 0.00 | 93 | 1010.4 |
| 20260507075718 | 48 | 65 | 0.0 | 0.0 | 0.00 | 0.00 | 0.00 | 93 | 1010.3 |
| 20260507075359 | 48 | 130 | 0.0 | 0.0 | 0.00 | 0.00 | 0.00 | 93 | 1010.3 |
| 20260507075252 | 48 | 55 | 0.0 | 0.0 | 0.00 | 0.00 | 0.00 | 93 | 1010.4 |
| 20260506172948 | 60 | 160 | 0.0 | 0.0 | 0.00 | 0.00 | 0.00 | 80 | 1004.7 |
| 20260506172841 | 60 | 215 | 0.0 | 0.0 | 0.00 | 0.00 | 0.00 | 79 | 1004.8 |
| 20260506172735 | 61 | 70 | 0.0 | 0.0 | 0.00 | 0.00 | 0.00 | 79 | 1004.7 |
| 20260506172629 | 60 | 60 | 0.0 | 0.0 | 0.00 | 0.00 | 0.00 | 79 | 1004.7 |
| 20260506172522 | 61 | 90 | 0.0 | 0.0 | 0.00 | 0.00 | 0.00 | 78 | 1004.7 |
| 20260506172203 | 61 | 45 | 0.0 | 0.0 | 0.00 | 0.00 | 0.00 | 77 | 1004.7 |
| 20260506172056 | 61 | 80 | 0.0 | 0.0 | 0.00 | 0.00 | 0.00 | 76 | 1004.7 |
| 20260506171949 | 61 | 70 | 0.0 | 0.0 | 0.00 | 0.00 | 0.00 | 76 | 1004.7 |
| 20260506171843 | 61 | 45 | 0.0 | 0.0 | 0.00 | 0.00 | 0.00 | 75 | 1004.8 |
| 20260506171630 | 61 | 100 | 0.0 | 0.0 | 0.00 | 0.00 | 0.00 | 74 | 1004.7 |
| 20260506171523 | 61 | 90 | 0.0 | 0.0 | 0.00 | 0.00 | 0.00 | 74 | 1004.7 |
| 20260506171419 | 61 | 105 | 0.0 | 0.0 | 0.00 | 0.00 | 0.00 | 74 | 1004.6 |
| 20260506171311 | 61 | 80 | 0.0 | 0.0 | 0.00 | 0.00 | 0.00 | 73 | 1004.7 |
| 20260506171204 | 61 | 75 | 0.0 | 0.0 | 0.00 | 0.00 | 0.00 | 82 | 1004.6 |
| 20260506171058 | 62 | 85 | 0.0 | 0.0 | 0.00 | 0.00 | 0.00 | 73 | 1004.8 |
| 20260506170951 | 61 | 90 | 0.0 | 0.0 | 0.00 | 0.00 | 0.00 | 72 | 1004.6 |
| 20260506170844 | 62 | 110 | 0.0 | 0.0 | 0.00 | 0.00 | 0.00 | 72 | 1004.6 |
| 20260506170631 | 62 | 75 | 0.0 | 0.0 | 0.00 | 0.00 | 0.00 | 71 | 1004.7 |
| 20260506170525 | 62 | 80 | 0.0 | 0.0 | 0.00 | 0.00 | 0.00 | 71 | 1004.7 |
| 20260506170313 | 62 | 75 | 0.0 | 0.0 | 0.00 | 0.00 | 0.00 | 71 | 1004.5 |
| 20260506170206 | 62 | 65 | 0.0 | 0.0 | 0.00 | 0.00 | 0.00 | 70 | 1004.6 |
| 20260506170059 | 62 | 155 | 0.0 | 0.0 | 0.00 | 0.00 | 0.00 | 71 | 1004.7 |
| 20260506165953 | 62 | 105 | 0.0 | 0.0 | 0.00 | 0.00 | 0.00 | 70 | 1004.6 |
| 20260506165847 | 62 | 75 | 0.0 | 0.0 | 0.00 | 0.00 | 0.00 | 70 | 1004.7 |
| 20260506165740 | 62 | 75 | 0.0 | 0.0 | 0.00 | 0.00 | 0.00 | 70 | 1004.7 |
| 20260506165634 | 62 | 65 | 0.0 | 0.0 | 0.00 | 0.00 | 0.00 | 69 | 1004.6 |
| 20260506165528 | 62 | 90 | 0.0 | 0.0 | 0.00 | 0.00 | 0.00 | 69 | 1004.6 |
| 20260506165314 | 62 | 90 | 0.0 | 0.0 | 0.00 | 0.00 | 0.00 | 67 | 1004.6 |
| 20260506165207 | 63 | 60 | 0.0 | 0.0 | 0.00 | 0.00 | 0.00 | 66 | 1004.6 |
| 20260506165100 | 63 | 70 | 0.0 | 0.0 | 0.00 | 0.00 | 0.00 | 65 | 1004.6 |
| 20260506164954 | 63 | 75 | 8.7 | 0.0 | 0.00 | 0.00 | 0.00 | 64 | 1004.5 |
| 20260506164849 | 63 | 60 | 0.0 | 0.0 | 0.00 | 0.00 | 0.00 | 62 | 1004.6 |
| 20260506164743 | 63 | 75 | 5.2 | 0.0 | 0.00 | 0.00 | 0.00 | 60 | 1004.7 |
| 20260506164636 | 63 | 175 | 0.0 | 0.0 | 0.00 | 0.00 | 0.00 | 58 | 1004.6 |
| 20260506164528 | 64 | 135 | 0.0 | 0.0 | 0.00 | 0.00 | 0.00 | 57 | 1004.6 |
| 20260506164422 | 64 | 70 | 0.0 | 0.0 | 0.00 | 0.00 | 0.00 | 55 | 1004.7 |
| 20260506164316 | 64 | 110 | 0.0 | 0.0 | 0.00 | 0.00 | 0.00 | 53 | 1004.6 |
| 20260506164209 | 64 | 60 | 0.0 | 0.0 | 0.00 | 0.00 | 0.00 | 50 | 1004.7 |
| 20260506164103 | 64 | 70 | 0.0 | 0.0 | 0.00 | 0.00 | 0.00 | 48 | 1004.6 |
| 20260506163746 | 64 | 135 | 0.0 | 0.0 | 0.00 | 0.00 | 0.00 | 40 | 1004.6 |
| 20260506163637 | 64 | 90 | 0.0 | 0.0 | 0.00 | 0.00 | 0.00 | 37 | 1004.7 |
| 20260506163531 | 64 | 45 | 0.0 | 0.0 | 0.00 | 0.00 | 0.00 | 34 | 1004.6 |
| 20260506163424 | 65 | 65 | 0.0 | 0.0 | 0.00 | 0.00 | 0.00 | 30 | 1004.7 |
| 20260506163316 | 65 | 75 | 0.0 | 0.0 | 0.00 | 0.00 | 0.00 | 26 | 1004.6 |
| 20260506163210 | 66 | 65 | 0.0 | 0.0 | 0.00 | 0.00 | 0.00 | 23 | 1004.5 |
| 20260506163104 | 66 | 60 | 0.0 | 0.0 | 0.00 | 0.00 | 0.00 | 23 | 1004.6 |
| 20260506162850 | 66 | 195 | 0.0 | 0.0 | 0.00 | 0.00 | 0.00 | 23 | 1004.6 |
| 20260506162744 | 66 | 195 | 0.0 | 0.0 | 0.00 | 0.00 | 0.00 | 23 | 1004.4 |
| 20260506162638 | 66 | 185 | 0.0 | 0.0 | 0.00 | 0.00 | 0.00 | 23 | 1004.5 |
| 20260506162531 | 65 | 205 | 0.0 | 0.0 | 0.00 | 0.00 | 0.00 | 23 | 1004.5 |
| 20260506162425 | 65 | 175 | 0.0 | 0.0 | 0.00 | 0.00 | 0.00 | 23 | 1004.5 |
| 20260506162212 | 66 | 185 | 0.0 | 0.0 | 0.00 | 0.00 | 0.00 | 22 | 1004.4 |
| 20260506162107 | 66 | 195 | 0.0 | 0.0 | 0.00 | 0.00 | 0.00 | 22 | 1004.4 |
| 20260506161852 | 66 | 175 | 0.0 | 0.0 | 0.00 | 0.00 | 0.00 | 22 | 1004.6 |
| 20260506161746 | 66 | 220 | 0.0 | 0.0 | 0.00 | 0.00 | 0.00 | 22 | 1004.5 |
| 20260506161639 | 66 | 200 | 0.0 | 0.0 | 0.00 | 0.00 | 0.00 | 22 | 1004.5 |
| 20260506161533 | 66 | 195 | 0.0 | 0.0 | 0.00 | 0.00 | 0.00 | 22 | 1004.4 |
| 20260506161428 | 66 | 215 | 0.0 | 0.0 | 0.00 | 0.00 | 0.00 | 22 | 1004.5 |
| 20260506161320 | 66 | 215 | 0.0 | 0.0 | 0.00 | 0.00 | 0.00 | 22 | 1004.3 |
| 20260506161213 | 66 | 190 | 0.0 | 0.0 | 0.00 | 0.00 | 0.00 | 22 | 1004.4 |
| 20260506161107 | 66 | 210 | 0.0 | 0.0 | 0.00 | 0.00 | 0.00 | 22 | 1004.4 |
| 20260506161001 | 66 | 210 | 0.0 | 0.0 | 0.00 | 0.00 | 0.00 | 22 | 1004.4 |
| 20260506160854 | 67 | 200 | 0.0 | 0.0 | 0.00 | 0.00 | 0.00 | 21 | 1004.4 |
| 20260506160747 | 66 | 170 | 0.0 | 0.0 | 0.00 | 0.00 | 0.00 | 21 | 1004.4 |
| 20260506160640 | 67 | 205 | 0.0 | 0.0 | 0.00 | 0.00 | 0.00 | 21 | 1004.5 |
| 20260506160534 | 67 | 205 | 0.0 | 0.0 | 0.00 | 0.00 | 0.00 | 21 | 1004.3 |
| 20260506160428 | 67 | 150 | 0.0 | 0.0 | 0.00 | 0.00 | 0.00 | 20 | 1004.5 |
| 20260506160214 | 104 | 150 | 0.0 | 0.0 | 0.00 | 0.00 | 0.00 | 19 | 1004.4 |
| 20260506160108 | 67 | 215 | 0.0 | 0.0 | 0.00 | 0.00 | 0.00 | 19 | 1004.5 |
| 20260506160003 | 67 | 210 | 0.0 | 0.0 | 0.00 | 0.00 | 0.00 | 19 | 1004.4 |
| 20260506155855 | 67 | 115 | 0.0 | 0.0 | 0.00 | 0.00 | 0.00 | 19 | 1004.4 |
| 20260506155748 | 67 | 195 | 0.0 | 0.0 | 0.00 | 0.00 | 0.00 | 19 | 1004.4 |
| 20260506155645 | 67 | 180 | 0.0 | 0.0 | 0.00 | 0.00 | 0.00 | 19 | 1004.3 |
| 20260506155536 | 67 | 195 | 0.0 | 0.0 | 0.00 | 0.00 | 0.00 | 19 | 1004.4 |
| 20260506155428 | 68 | 210 | 0.0 | 0.0 | 0.00 | 0.00 | 0.00 | 19 | 1004.4 |
| 20260506155322 | 68 | 220 | 0.0 | 0.0 | 0.00 | 0.00 | 0.00 | 19 | 1004.4 |
| 20260506155107 | 68 | 220 | 0.0 | 0.0 | 0.00 | 0.00 | 0.00 | 19 | 1004.3 |
| 20260506155000 | 68 | 220 | 0.0 | 0.0 | 0.00 | 0.00 | 0.00 | 18 | 1004.4 |
| 20260506154853 | 68 | 205 | 0.0 | 0.0 | 0.00 | 0.00 | 0.00 | 18 | 1004.3 |
| 20260506154746 | 68 | 195 | 0.0 | 0.0 | 0.00 | 0.00 | 0.00 | 18 | 1004.5 |
| 20260506154640 | 68 | 220 | 0.0 | 0.0 | 0.00 | 0.00 | 0.00 | 18 | 1004.4 |
| 20260506154535 | 68 | 130 | 0.0 | 0.0 | 0.00 | 0.00 | 0.00 | 18 | 1004.4 |
| 20260506154427 | 68 | 215 | 0.0 | 0.0 | 0.00 | 0.00 | 0.00 | 18 | 1004.4 |
| 20260506154323 | 68 | 140 | 0.0 | 0.0 | 0.00 | 0.00 | 0.00 | 19 | 1004.4 |
| 20260506154214 | 68 | 190 | 0.0 | 0.0 | 0.00 | 0.00 | 0.00 | 19 | 1004.5 |
| 20260506154108 | 68 | 195 | 0.0 | 0.0 | 0.00 | 0.00 | 0.00 | 20 | 1004.5 |
| 20260506154003 | 75 | 220 | 0.0 | 0.0 | 0.00 | 0.00 | 0.00 | 20 | 1004.6 |
| 20260506153748 | 68 | 220 | 0.0 | 0.0 | 0.00 | 0.00 | 0.00 | 20 | 1004.6 |
| 20260506153641 | 68 | 195 | 0.0 | 0.0 | 0.00 | 0.00 | 0.00 | 20 | 1004.6 |
| 20260506153535 | 68 | 220 | 0.0 | 0.0 | 0.00 | 0.00 | 0.00 | 20 | 1004.6 |
| 20260506153428 | 68 | 190 | 0.0 | 0.0 | 0.00 | 0.00 | 0.00 | 20 | 1004.5 |
| 20260506153215 | 67 | 210 | 0.0 | 0.0 | 0.00 | 0.00 | 0.00 | 20 | 1004.5 |
| 20260506153108 | 68 | 190 | 0.0 | 0.0 | 0.00 | 0.00 | 0.00 | 19 | 1004.6 |
| 20260506153002 | 68 | 205 | 0.0 | 0.0 | 0.00 | 0.00 | 0.00 | 19 | 1004.6 |
| 20260506152855 | 68 | 210 | 0.0 | 0.0 | 0.00 | 0.00 | 0.00 | 19 | 1004.6 |
| 20260506152749 | 68 | 185 | 0.0 | 0.0 | 0.00 | 0.00 | 0.00 | 19 | 1004.6 |
| 20260506152642 | 68 | 155 | 0.0 | 0.0 | 0.00 | 0.00 | 0.00 | 19 | 1004.6 |
| 20260506152536 | 68 | 210 | 0.0 | 0.0 | 0.00 | 0.00 | 0.00 | 19 | 1004.6 |
| 20260506152429 | 67 | 185 | 0.0 | 0.0 | 0.00 | 0.00 | 0.00 | 19 | 1004.6 |
| 20260506152002 | 68 | 215 | 0.0 | 0.0 | 0.00 | 0.00 | 0.00 | 18 | 1004.8 |
| 20260506151856 | 68 | 200 | 0.0 | 0.0 | 0.00 | 0.00 | 0.00 | 19 | 1004.7 |
| 20260506151749 | 68 | 210 | 0.0 | 0.0 | 0.00 | 0.00 | 0.00 | 19 | 1004.8 |
| 20260506151643 | 68 | 200 | 0.0 | 0.0 | 0.00 | 0.00 | 0.00 | 19 | 1004.6 |
| 20260506151536 | 68 | 210 | 0.0 | 0.0 | 0.00 | 0.00 | 0.00 | 19 | 1004.7 |
| 20260506151429 | 68 | 215 | 3.5 | 0.0 | 0.00 | 0.00 | 0.00 | 19 | 1004.7 |
| 20260506151323 | 68 | 210 | 0.0 | 0.0 | 0.00 | 0.00 | 0.00 | 19 | 1004.8 |
| 20260506151111 | 68 | 210 | 0.0 | 0.0 | 0.00 | 0.00 | 0.00 | 19 | 1004.7 |
| 20260506151005 | 68 | 185 | 0.0 | 0.0 | 0.00 | 0.00 | 0.00 | 19 | 1004.8 |
| 20260506150857 | 68 | 180 | 0.0 | 0.0 | 0.00 | 0.00 | 0.00 | 19 | 1004.8 |
| 20260506150751 | 68 | 215 | 0.0 | 0.0 | 0.00 | 0.00 | 0.00 | 19 | 1004.7 |
| 20260506150644 | 68 | 140 | 0.0 | 0.0 | 0.00 | 0.00 | 0.00 | 19 | 1004.8 |
| 20260506150538 | 68 | 200 | 0.0 | 0.0 | 0.00 | 0.00 | 0.00 | 19 | 1004.7 |
| 20260506150431 | 68 | 215 | 0.0 | 0.0 | 0.00 | 0.00 | 0.00 | 19 | 1004.7 |
| 20260506150326 | 68 | 135 | 0.0 | 0.0 | 0.00 | 0.00 | 0.00 | 19 | 1004.7 |
| 20260506150218 | 68 | 190 | 0.0 | 0.0 | 0.00 | 0.00 | 0.00 | 19 | 1004.6 |
| 20260506150111 | 68 | 195 | 0.0 | 0.0 | 0.00 | 0.00 | 0.00 | 19 | 1004.7 |
| 20260506150006 | 68 | 220 | 0.0 | 0.0 | 0.00 | 0.00 | 0.00 | 19 | 1004.8 |
| 20260506145859 | 68 | 220 | 0.0 | 0.0 | 0.00 | 0.00 | 0.00 | 19 | 1004.6 |
| 20260506145751 | 68 | 215 | 0.0 | 0.0 | 0.00 | 0.00 | 0.00 | 19 | 1004.7 |
| 20260506145643 | 68 | 150 | 0.0 | 0.0 | 0.00 | 0.00 | 0.00 | 19 | 1004.8 |
| 20260506145538 | 68 | 210 | 0.0 | 0.0 | 0.00 | 0.00 | 0.00 | 19 | 1004.7 |
| 20260506145431 | 68 | 205 | 0.0 | 0.0 | 0.00 | 0.00 | 0.00 | 19 | 1004.6 |
| 20260506145323 | 68 | 215 | 0.0 | 0.0 | 0.00 | 0.00 | 0.00 | 19 | 1004.8 |
| 20260506145217 | 68 | 205 | 0.0 | 0.0 | 0.00 | 0.00 | 0.00 | 19 | 1004.7 |
| 20260506145110 | 68 | 170 | 0.0 | 0.0 | 0.00 | 0.00 | 0.00 | 19 | 1004.8 |
| 20260506145003 | 68 | 210 | 0.0 | 0.0 | 0.00 | 0.00 | 0.00 | 18 | 1004.7 |
| 20260506144857 | 68 | 220 | 0.0 | 0.0 | 0.00 | 0.00 | 0.00 | 18 | 1004.9 |
| 20260506144751 | 68 | 200 | 0.0 | 0.0 | 0.00 | 0.00 | 0.00 | 18 | 1004.8 |
| 20260506144643 | 68 | 160 | 0.0 | 0.0 | 0.00 | 0.00 | 0.00 | 18 | 1004.7 |
| 20260506144535 | 68 | 180 | 0.0 | 0.0 | 0.00 | 0.00 | 0.00 | 18 | 1004.8 |
| 20260506144429 | 68 | 215 | 0.0 | 0.0 | 0.00 | 0.00 | 0.00 | 19 | 1004.6 |
| 20260506144323 | 68 | 200 | 0.0 | 0.0 | 0.00 | 0.00 | 0.00 | 19 | 1004.7 |
| 20260506144216 | 68 | 195 | 0.0 | 0.0 | 0.00 | 0.00 | 0.00 | 19 | 1004.8 |
| 20260506144111 | 105 | 155 | 0.0 | 0.0 | 0.00 | 0.00 | 0.00 | 19 | 1004.8 |
| 20260506143856 | 105 | 200 | 0.0 | 0.0 | 0.00 | 0.00 | 0.00 | 19 | 1004.7 |
| 20260506143750 | 68 | 180 | 0.0 | 0.0 | 0.00 | 0.00 | 0.00 | 20 | 1004.7 |
| 20260506143646 | 68 | 180 | 0.0 | 0.0 | 0.00 | 0.00 | 0.00 | 20 | 1004.8 |
| 20260506143538 | 69 | 200 | 0.0 | 0.0 | 0.00 | 0.00 | 0.00 | 20 | 1004.8 |
| 20260506143215 | 68 | 160 | 0.0 | 0.0 | 0.00 | 0.00 | 0.00 | 20 | 1004.8 |
| 20260506143108 | 68 | 215 | 0.0 | 0.0 | 0.00 | 0.00 | 0.00 | 20 | 1004.8 |
| 20260506143003 | 68 | 195 | 0.0 | 0.0 | 0.00 | 0.00 | 0.00 | 20 | 1004.8 |
| 20260506142855 | 69 | 215 | 0.0 | 0.0 | 0.00 | 0.00 | 0.00 | 20 | 1004.8 |
| 20260506142748 | 68 | 220 | 0.0 | 0.0 | 0.00 | 0.00 | 0.00 | 20 | 1004.8 |
| 20260506142642 | 68 | 200 | 0.0 | 0.0 | 0.00 | 0.00 | 0.00 | 20 | 1004.8 |
| 20260506142535 | 68 | 205 | 0.0 | 0.0 | 0.00 | 0.00 | 0.00 | 21 | 1004.7 |
| 20260506142428 | 68 | 170 | 0.0 | 0.0 | 0.00 | 0.00 | 0.00 | 21 | 1004.8 |
| 20260506142110 | 68 | 210 | 0.0 | 0.0 | 0.00 | 0.00 | 0.00 | 21 | 1004.8 |
| 20260506142003 | 68 | 155 | 0.0 | 0.0 | 0.00 | 0.00 | 0.00 | 21 | 1004.9 |
| 20260506141856 | 68 | 180 | 0.0 | 0.0 | 0.00 | 0.00 | 0.00 | 21 | 1004.9 |
| 20260506141750 | 69 | 195 | 0.0 | 0.0 | 0.00 | 0.00 | 0.00 | 21 | 1004.6 |
| 20260506141643 | 68 | 175 | 0.0 | 0.0 | 0.00 | 0.00 | 0.00 | 21 | 1004.8 |
| 20260506141538 | 68 | 205 | 0.0 | 0.0 | 0.00 | 0.00 | 0.00 | 21 | 1004.9 |
| 20260506141430 | 68 | 185 | 0.0 | 0.0 | 0.00 | 0.00 | 0.00 | 22 | 1004.9 |
| 20260506141324 | 68 | 185 | 3.5 | 0.0 | 0.00 | 0.00 | 0.00 | 22 | 1004.8 |
| 20260506141110 | 68 | 185 | 0.0 | 0.0 | 0.00 | 0.00 | 0.00 | 22 | 1004.8 |
| 20260506141005 | 105 | 210 | 0.0 | 0.0 | 0.00 | 0.00 | 0.00 | 22 | 1004.8 |
| 20260506140858 | 68 | 210 | 0.0 | 0.0 | 0.00 | 0.00 | 0.00 | 22 | 1004.9 |
| 20260506140751 | 105 | 200 | 5.2 | 0.0 | 0.00 | 0.00 | 0.00 | 21 | 1005.0 |
| 20260506140645 | 105 | 155 | 0.0 | 0.0 | 0.00 | 0.00 | 0.00 | 22 | 1004.7 |
| 20260506140538 | 106 | 175 | 7.0 | 0.0 | 0.00 | 0.00 | 0.00 | 21 | 1004.9 |
| 20260506140431 | 68 | 195 | 0.0 | 0.0 | 0.00 | 0.00 | 0.00 | 22 | 1004.8 |
| 20260506140326 | 68 | 210 | 0.0 | 0.0 | 0.00 | 0.00 | 0.00 | 22 | 1004.9 |
| 20260506140219 | 68 | 210 | 0.0 | 0.0 | 0.00 | 0.00 | 0.00 | 22 | 1004.8 |
| 20260506140113 | 67 | 170 | 0.0 | 0.0 | 0.00 | 0.00 | 0.00 | 22 | 1004.9 |
| 20260506135753 | 67 | 205 | 0.0 | 0.0 | 0.00 | 0.00 | 0.00 | 21 | 1004.9 |
| 20260506135646 | 68 | 205 | 7.0 | 0.0 | 0.00 | 0.00 | 0.00 | 21 | 1004.9 |
| 20260506135540 | 68 | 155 | 0.0 | 0.0 | 0.00 | 0.00 | 0.00 | 21 | 1004.8 |
| 20260506135433 | 68 | 215 | 3.5 | 0.0 | 0.00 | 0.00 | 0.00 | 21 | 1004.9 |
| 20260506135327 | 68 | 190 | 10.4 | 0.0 | 0.00 | 0.00 | 0.00 | 20 | 1004.9 |
| 20260506135114 | 68 | 155 | 12.2 | 0.0 | 0.00 | 0.00 | 0.00 | 20 | 1004.9 |
| 20260506135007 | 68 | 170 | 0.0 | 0.0 | 0.00 | 0.00 | 0.00 | 20 | 1005.0 |
| 20260506134650 | 69 | 210 | 0.0 | 0.0 | 0.00 | 0.00 | 0.00 | 20 | 1005.0 |
| 20260506134542 | 69 | 60 | 0.0 | 0.0 | 0.00 | 0.00 | 0.00 | 20 | 1004.9 |
| 20260506134434 | 69 | 180 | 0.0 | 0.0 | 0.00 | 0.00 | 0.00 | 20 | 1005.0 |
| 20260506134327 | 69 | 210 | 0.0 | 0.0 | 0.00 | 0.00 | 0.00 | 20 | 1005.0 |
| 20260506134221 | 69 | 205 | 0.0 | 0.0 | 0.00 | 0.00 | 0.00 | 20 | 1005.1 |
| 20260506134114 | 69 | 215 | 0.0 | 0.0 | 0.00 | 0.00 | 0.00 | 20 | 1005.0 |
| 20260506134007 | 68 | 195 | 0.0 | 0.0 | 0.00 | 0.00 | 0.00 | 20 | 1004.9 |
| 20260506133755 | 68 | 150 | 0.0 | 0.0 | 0.00 | 0.00 | 0.00 | 20 | 1005.0 |
| 20260506133648 | 69 | 190 | 0.0 | 0.0 | 0.00 | 0.00 | 0.00 | 20 | 1005.1 |
| 20260506133543 | 69 | 200 | 7.0 | 0.0 | 0.00 | 0.00 | 0.00 | 20 | 1004.9 |
| 20260506133435 | 106 | 205 | 0.0 | 0.0 | 0.00 | 0.00 | 0.00 | 20 | 1005.1 |
| 20260506133225 | 69 | 195 | 0.0 | 0.0 | 0.00 | 0.00 | 0.00 | 21 | 1005.0 |
| 20260506133115 | 69 | 185 | 0.0 | 0.0 | 0.00 | 0.00 | 0.00 | 22 | 1005.0 |
| 20260506133009 | 68 | 195 | 0.0 | 0.0 | 0.00 | 0.00 | 0.00 | 22 | 1005.0 |
| 20260506132903 | 68 | 140 | 0.0 | 0.0 | 0.00 | 0.00 | 0.00 | 22 | 1004.9 |
| 20260506132800 | 68 | 185 | 0.0 | 0.0 | 0.00 | 0.00 | 0.00 | 22 | 1005.0 |
| 20260506132649 | 68 | 210 | 0.0 | 0.0 | 0.00 | 0.00 | 0.00 | 22 | 1005.0 |
| 20260506132543 | 68 | 180 | 0.0 | 0.0 | 0.00 | 0.00 | 0.00 | 22 | 1004.9 |
| 20260506132437 | 68 | 215 | 0.0 | 0.0 | 0.00 | 0.00 | 0.00 | 22 | 1004.9 |
| 20260506132330 | 68 | 190 | 0.0 | 0.0 | 0.00 | 0.00 | 0.00 | 22 | 1005.0 |
| 20260506132224 | 68 | 215 | 0.0 | 0.0 | 0.00 | 0.00 | 0.00 | 23 | 1005.0 |
| 20260506132117 | 68 | 110 | 0.0 | 0.0 | 0.00 | 0.00 | 0.00 | 23 | 1005.0 |
| 20260506132011 | 68 | 170 | 0.0 | 0.0 | 0.00 | 0.00 | 0.00 | 23 | 1005.0 |
| 20260506131905 | 68 | 180 | 0.0 | 0.0 | 0.00 | 0.00 | 0.00 | 23 | 1005.0 |
| 20260506131758 | 68 | 175 | 0.0 | 0.0 | 0.00 | 0.00 | 0.00 | 23 | 1005.1 |
| 20260506131651 | 68 | 195 | 0.0 | 0.0 | 0.00 | 0.00 | 0.00 | 23 | 1005.1 |
| 20260506131545 | 67 | 180 | 0.0 | 0.0 | 0.00 | 0.00 | 0.00 | 23 | 1005.1 |
| 20260506131439 | 68 | 170 | 0.0 | 0.0 | 0.00 | 0.00 | 0.00 | 23 | 1005.0 |
| 20260506131332 | 68 | 155 | 0.0 | 0.0 | 0.00 | 0.00 | 0.00 | 23 | 1005.1 |
| 20260506131225 | 68 | 200 | 0.0 | 0.0 | 0.00 | 0.00 | 0.00 | 23 | 1005.0 |
| 20260506131119 | 68 | 205 | 0.0 | 0.0 | 0.00 | 0.00 | 0.00 | 23 | 1005.2 |
| 20260506130907 | 67 | 155 | 0.0 | 0.0 | 0.00 | 0.00 | 0.00 | 24 | 1005.2 |
| 20260506130800 | 67 | 180 | 0.0 | 0.0 | 0.00 | 0.00 | 0.00 | 24 | 1005.3 |
| 20260506130653 | 67 | 130 | 0.0 | 0.0 | 0.00 | 0.00 | 0.00 | 24 | 1005.1 |
| 20260506130547 | 67 | 165 | 0.0 | 0.0 | 0.00 | 0.00 | 0.00 | 24 | 1005.2 |
| 20260506130440 | 67 | 200 | 0.0 | 0.0 | 0.00 | 0.00 | 0.00 | 24 | 1005.1 |
| 20260506130334 | 67 | 215 | 0.0 | 0.0 | 0.00 | 0.00 | 0.00 | 24 | 1005.1 |
| 20260506130227 | 67 | 165 | 0.0 | 0.0 | 0.00 | 0.00 | 0.00 | 24 | 1005.2 |
| 20260506130121 | 67 | 200 | 0.0 | 0.0 | 0.00 | 0.00 | 0.00 | 23 | 1005.3 |
| 20260506130015 | 67 | 210 | 0.0 | 0.0 | 0.00 | 0.00 | 0.00 | 23 | 1005.1 |
| 20260506125907 | 68 | 130 | 0.0 | 0.0 | 0.00 | 0.00 | 0.00 | 22 | 1005.2 |
| 20260506125654 | 68 | 175 | 0.0 | 0.0 | 0.00 | 0.00 | 0.00 | 21 | 1005.3 |
| 20260506125548 | 68 | 170 | 0.0 | 0.0 | 0.00 | 0.00 | 0.00 | 21 | 1005.2 |
| 20260506125441 | 68 | 220 | 0.0 | 0.0 | 0.00 | 0.00 | 0.00 | 21 | 1005.2 |
| 20260506125335 | 68 | 220 | 0.0 | 0.0 | 0.00 | 0.00 | 0.00 | 21 | 1005.3 |
| 20260506125228 | 68 | 195 | 0.0 | 0.0 | 0.00 | 0.00 | 0.00 | 21 | 1005.1 |
| 20260506125121 | 68 | 215 | 0.0 | 0.0 | 0.00 | 0.00 | 0.00 | 21 | 1005.3 |
| 20260506125015 | 68 | 180 | 0.0 | 0.0 | 0.00 | 0.00 | 0.00 | 21 | 1005.3 |
| 20260506124908 | 68 | 155 | 0.0 | 0.0 | 0.00 | 0.00 | 0.00 | 21 | 1005.3 |
| 20260506124657 | 69 | 205 | 0.0 | 0.0 | 0.00 | 0.00 | 0.00 | 20 | 1005.2 |
| 20260506124549 | 69 | 210 | 0.0 | 0.0 | 0.00 | 0.00 | 0.00 | 19 | 1005.2 |
| 20260506124444 | 69 | 220 | 0.0 | 0.0 | 0.00 | 0.00 | 0.00 | 18 | 1005.3 |
| 20260506124339 | 69 | 210 | 0.0 | 0.0 | 0.00 | 0.00 | 0.00 | 18 | 1005.2 |
| 20260506124230 | 69 | 145 | 0.0 | 0.0 | 0.00 | 0.00 | 0.00 | 18 | 1005.1 |
| 20260506124125 | 70 | 150 | 0.0 | 0.0 | 0.00 | 0.00 | 0.00 | 18 | 1005.2 |
| 20260506124016 | 70 | 180 | 0.0 | 0.0 | 0.00 | 0.00 | 0.00 | 18 | 1005.1 |
| 20260506123802 | 70 | 185 | 0.0 | 0.0 | 0.00 | 0.00 | 0.00 | 18 | 1005.3 |
| 20260506123657 | 70 | 160 | 0.0 | 0.0 | 0.00 | 0.00 | 0.00 | 18 | 1005.2 |
| 20260506123550 | 70 | 220 | 0.0 | 0.0 | 0.00 | 0.00 | 0.00 | 18 | 1005.2 |
| 20260506123443 | 71 | 200 | 3.5 | 0.0 | 0.00 | 0.00 | 0.00 | 17 | 1005.3 |
| 20260506123338 | 71 | 220 | 0.0 | 0.0 | 0.00 | 0.00 | 0.00 | 17 | 1005.1 |
| 20260506123230 | 70 | 175 | 0.0 | 0.0 | 0.00 | 0.00 | 0.00 | 17 | 1005.3 |
| 20260506123122 | 71 | 205 | 0.0 | 0.0 | 0.00 | 0.00 | 0.00 | 17 | 1005.1 |
| 20260506123015 | 72 | 215 | 0.0 | 0.0 | 0.00 | 0.00 | 0.00 | 17 | 1005.3 |
| 20260506122908 | 71 | 170 | 0.0 | 0.0 | 0.00 | 0.00 | 0.00 | 17 | 1005.3 |
| 20260506122548 | 71 | 220 | 12.2 | 0.0 | 0.00 | 0.00 | 0.00 | 17 | 1005.3 |
| 20260506122440 | 71 | 200 | 0.0 | 0.0 | 0.00 | 0.00 | 0.00 | 17 | 1005.3 |
| 20260506122227 | 71 | 180 | 0.0 | 0.0 | 0.00 | 0.00 | 0.00 | 18 | 1005.3 |
| 20260506122122 | 71 | 170 | 0.0 | 0.0 | 0.00 | 0.00 | 0.00 | 18 | 1005.2 |
| 20260506122015 | 71 | 200 | 0.0 | 0.0 | 0.00 | 0.00 | 0.00 | 18 | 1005.2 |
| 20260506121907 | 71 | 220 | 0.0 | 0.0 | 0.00 | 0.00 | 0.00 | 19 | 1005.3 |
| 20260506121801 | 71 | 180 | 0.0 | 0.0 | 0.00 | 0.00 | 0.00 | 19 | 1005.3 |
| 20260506121546 | 71 | 200 | 0.0 | 0.0 | 0.00 | 0.00 | 0.00 | 19 | 1005.3 |
| 20260506121440 | 70 | 195 | 0.0 | 0.0 | 0.00 | 0.00 | 0.00 | 19 | 1005.4 |
| 20260506121333 | 70 | 215 | 0.0 | 0.0 | 0.00 | 0.00 | 0.00 | 19 | 1005.4 |
| 20260506121227 | 69 | 200 | 0.0 | 0.0 | 0.00 | 0.00 | 0.00 | 19 | 1005.3 |
| 20260506121014 | 70 | 220 | 7.0 | 0.0 | 0.00 | 0.00 | 0.00 | 19 | 1005.3 |
| 20260506120909 | 70 | 210 | 0.0 | 0.0 | 0.00 | 0.00 | 0.00 | 19 | 1005.2 |
| 20260506120801 | 70 | 170 | 0.0 | 0.0 | 0.00 | 0.00 | 0.00 | 20 | 1005.2 |
| 20260506120654 | 69 | 215 | 0.0 | 0.0 | 0.00 | 0.00 | 0.00 | 20 | 1005.2 |
| 20260506120549 | 69 | 195 | 0.0 | 0.0 | 0.00 | 0.00 | 0.00 | 20 | 1005.4 |
| 20260506120441 | 69 | 210 | 0.0 | 0.0 | 0.00 | 0.00 | 0.00 | 20 | 1005.3 |
| 20260506120333 | 70 | 210 | 0.0 | 0.0 | 0.00 | 0.00 | 0.00 | 20 | 1005.2 |
| 20260506120226 | 69 | 175 | 0.0 | 0.0 | 0.00 | 0.00 | 0.00 | 21 | 1005.2 |
| 20260506120121 | 69 | 180 | 0.0 | 0.0 | 0.00 | 0.00 | 0.00 | 21 | 1005.4 |
| 20260506120014 | 69 | 200 | 0.0 | 0.0 | 0.00 | 0.00 | 0.00 | 21 | 1005.3 |
| 20260506115907 | 70 | 145 | 0.0 | 0.0 | 0.00 | 0.00 | 0.00 | 21 | 1005.1 |
| 20260506115654 | 69 | 215 | 0.0 | 0.0 | 0.00 | 0.00 | 0.00 | 20 | 1005.1 |
| 20260506115548 | 69 | 210 | 0.0 | 0.0 | 0.00 | 0.00 | 0.00 | 20 | 1005.2 |
| 20260506115441 | 69 | 205 | 0.0 | 0.0 | 0.00 | 0.00 | 0.00 | 20 | 1005.2 |
| 20260506115228 | 69 | 150 | 0.0 | 0.0 | 0.00 | 0.00 | 0.00 | 21 | 1005.3 |
| 20260506115122 | 69 | 205 | 0.0 | 0.0 | 0.00 | 0.00 | 0.00 | 21 | 1005.3 |
| 20260506115015 | 69 | 210 | 0.0 | 0.0 | 0.00 | 0.00 | 0.00 | 21 | 1005.3 |
| 20260506114908 | 69 | 220 | 0.0 | 0.0 | 0.00 | 0.00 | 0.00 | 21 | 1005.3 |
| 20260506114656 | 69 | 200 | 7.0 | 0.0 | 0.00 | 0.00 | 0.00 | 22 | 1005.3 |
| 20260506114550 | 70 | 220 | 12.2 | 0.0 | 0.00 | 0.00 | 0.00 | 22 | 1005.3 |
| 20260506114442 | 70 | 200 | 5.2 | 0.0 | 0.00 | 0.00 | 0.00 | 22 | 1005.3 |
| 20260506114336 | 70 | 215 | 1.7 | 0.0 | 0.00 | 0.00 | 0.00 | 22 | 1005.3 |
| 20260506114229 | 70 | 175 | 0.0 | 0.0 | 0.00 | 0.00 | 0.00 | 22 | 1005.2 |
| 20260506114123 | 69 | 195 | 0.0 | 0.0 | 0.00 | 0.00 | 0.00 | 23 | 1005.4 |
| 20260506113909 | 69 | 190 | 0.0 | 0.0 | 0.00 | 0.00 | 0.00 | 23 | 1005.3 |
| 20260506113804 | 70 | 150 | 0.0 | 0.0 | 0.00 | 0.00 | 0.00 | 23 | 1005.3 |
| 20260506113657 | 70 | 210 | 0.0 | 0.0 | 0.00 | 0.00 | 0.00 | 23 | 1005.3 |
| 20260506113550 | 69 | 195 | 0.0 | 0.0 | 0.00 | 0.00 | 0.00 | 24 | 1005.4 |
| 20260506113337 | 69 | 200 | 0.0 | 0.0 | 0.00 | 0.00 | 0.00 | 24 | 1005.4 |
| 20260506113232 | 70 | 195 | 13.9 | 0.0 | 0.00 | 0.00 | 0.00 | 24 | 1005.4 |
| 20260506113124 | 70 | 165 | 5.2 | 0.0 | 0.00 | 0.00 | 0.00 | 24 | 1005.3 |
| 20260506113019 | 69 | 130 | 0.0 | 0.0 | 0.00 | 0.00 | 0.00 | 24 | 1005.2 |
| 20260506112911 | 69 | 200 | 0.0 | 0.0 | 0.00 | 0.00 | 0.00 | 24 | 1005.3 |
| 20260506112805 | 69 | 170 | 7.0 | 0.0 | 0.00 | 0.00 | 0.00 | 23 | 1005.3 |
| 20260506112700 | 69 | 170 | 0.0 | 0.0 | 0.00 | 0.00 | 0.00 | 23 | 1005.3 |
| 20260506112551 | 70 | 175 | 0.0 | 0.0 | 0.00 | 0.00 | 0.00 | 23 | 1005.4 |
| 20260506112447 | 70 | 175 | 0.0 | 0.0 | 0.00 | 0.00 | 0.00 | 23 | 1005.4 |
| 20260506112339 | 69 | 125 | 0.0 | 0.0 | 0.00 | 0.00 | 0.00 | 23 | 1005.4 |
| 20260506112126 | 69 | 130 | 0.0 | 0.0 | 0.00 | 0.00 | 0.00 | 23 | 1005.3 |
| 20260506112019 | 70 | 115 | 0.0 | 0.0 | 0.00 | 0.00 | 0.00 | 23 | 1005.4 |
| 20260506111914 | 69 | 85 | 1.7 | 0.0 | 0.00 | 0.00 | 0.00 | 23 | 1005.3 |
| 20260506111806 | 70 | 150 | 13.9 | 0.0 | 0.00 | 0.00 | 0.00 | 23 | 1005.3 |
| 20260506111659 | 70 | 155 | 0.0 | 0.0 | 0.00 | 0.00 | 0.00 | 22 | 1005.4 |
| 20260506111553 | 70 | 210 | 0.0 | 0.0 | 0.00 | 0.00 | 0.00 | 22 | 1005.3 |
| 20260506111447 | 70 | 170 | 5.2 | 0.0 | 0.00 | 0.00 | 0.00 | 22 | 1005.5 |
| 20260506111341 | 70 | 120 | 7.0 | 0.0 | 0.00 | 0.00 | 0.00 | 22 | 1005.5 |
| 20260506111234 | 70 | 170 | 7.0 | 0.0 | 0.00 | 0.00 | 0.00 | 22 | 1005.3 |
| 20260506111127 | 71 | 160 | 0.0 | 0.0 | 0.00 | 0.00 | 0.00 | 22 | 1005.2 |
| 20260506111021 | 70 | 160 | 0.0 | 0.0 | 0.00 | 0.00 | 0.00 | 23 | 1005.4 |
| 20260506110914 | 70 | 220 | 0.0 | 0.0 | 0.00 | 0.00 | 0.00 | 23 | 1005.4 |
| 20260506110808 | 70 | 195 | 1.7 | 0.0 | 0.00 | 0.00 | 0.00 | 23 | 1005.4 |
| 20260506110555 | 71 | 210 | 0.0 | 0.0 | 0.00 | 0.00 | 0.00 | 24 | 1005.4 |
| 20260506110342 | 70 | 190 | 1.7 | 0.0 | 0.00 | 0.00 | 0.00 | 25 | 1005.4 |
| 20260506110237 | 70 | 185 | 0.0 | 0.0 | 0.00 | 0.00 | 0.00 | 25 | 1005.3 |
| 20260506110129 | 70 | 175 | 0.0 | 0.0 | 0.00 | 0.00 | 0.00 | 26 | 1005.4 |
| 20260506110022 | 70 | 155 | 1.7 | 0.0 | 0.00 | 0.00 | 0.00 | 27 | 1005.4 |
| 20260506105915 | 70 | 220 | 20.9 | 0.0 | 0.00 | 0.00 | 0.00 | 27 | 1005.4 |
| 20260506105810 | 70 | 195 | 0.0 | 0.0 | 0.00 | 0.00 | 0.00 | 27 | 1005.5 |
| 20260506105704 | 70 | 205 | 0.0 | 0.0 | 0.00 | 0.00 | 0.00 | 27 | 1005.3 |
| 20260506105556 | 70 | 220 | 0.0 | 0.0 | 0.00 | 0.00 | 0.00 | 27 | 1005.4 |
| 20260506105343 | 70 | 200 | 0.0 | 0.0 | 0.00 | 0.00 | 0.00 | 28 | 1005.5 |
| 20260506105238 | 109 | 215 | 0.0 | 0.0 | 0.00 | 0.00 | 0.00 | 29 | 1005.4 |
| 20260506105130 | 109 | 215 | 0.0 | 0.0 | 0.00 | 0.00 | 0.00 | 28 | 1005.5 |
| 20260506104918 | 70 | 205 | 5.2 | 0.0 | 0.00 | 0.00 | 0.00 | 29 | 1005.5 |
| 20260506104811 | 70 | 215 | 0.0 | 0.0 | 0.00 | 0.00 | 0.00 | 29 | 1005.5 |
| 20260506104705 | 69 | 180 | 0.0 | 0.0 | 0.00 | 0.00 | 0.00 | 29 | 1005.4 |
| 20260506104559 | 69 | 180 | 0.0 | 0.0 | 0.00 | 0.00 | 0.00 | 29 | 1005.5 |
| 20260506104346 | 69 | 215 | 1.7 | 0.0 | 0.00 | 0.00 | 0.00 | 30 | 1005.6 |
| 20260506104238 | 69 | 180 | 0.0 | 0.0 | 0.00 | 0.00 | 0.00 | 31 | 1005.5 |
| 20260506104025 | 69 | 190 | 0.0 | 0.0 | 0.00 | 0.00 | 0.00 | 32 | 1005.5 |
| 20260506103918 | 69 | 220 | 0.0 | 0.0 | 0.00 | 0.00 | 0.00 | 32 | 1005.5 |
| 20260506103813 | 69 | 175 | 0.0 | 0.0 | 0.00 | 0.00 | 0.00 | 32 | 1005.4 |
| 20260506103706 | 69 | 105 | 0.0 | 0.0 | 0.00 | 0.00 | 0.00 | 32 | 1005.3 |
| 20260506103600 | 69 | 215 | 0.0 | 0.0 | 0.00 | 0.00 | 0.00 | 32 | 1005.4 |
| 20260506103453 | 108 | 190 | 0.0 | 0.0 | 0.00 | 0.00 | 0.00 | 32 | 1005.5 |
| 20260506103346 | 69 | 195 | 0.0 | 0.0 | 0.00 | 0.00 | 0.00 | 32 | 1005.5 |
| 20260506103240 | 68 | 140 | 0.0 | 0.0 | 0.00 | 0.00 | 0.00 | 32 | 1005.5 |
| 20260506103133 | 68 | 220 | 0.0 | 0.0 | 0.00 | 0.00 | 0.00 | 32 | 1005.5 |
| 20260506103027 | 68 | 190 | 0.0 | 0.0 | 0.00 | 0.00 | 0.00 | 33 | 1005.5 |
| 20260506102922 | 68 | 210 | 0.0 | 0.0 | 0.00 | 0.00 | 0.00 | 33 | 1005.5 |
| 20260506102813 | 67 | 210 | 0.0 | 0.0 | 0.00 | 0.00 | 0.00 | 34 | 1005.6 |
| 20260506102707 | 67 | 195 | 0.0 | 0.0 | 0.00 | 0.00 | 0.00 | 34 | 1005.5 |
| 20260506102601 | 67 | 195 | 0.0 | 0.0 | 0.00 | 0.00 | 0.00 | 34 | 1005.6 |
| 20260506102454 | 67 | 175 | 0.0 | 0.0 | 0.00 | 0.00 | 0.00 | 34 | 1005.6 |
| 20260506102241 | 113 | 195 | 7.0 | 0.0 | 0.00 | 0.00 | 0.00 | 34 | 1005.5 |
| 20260506102134 | 113 | 215 | 17.4 | 0.0 | 0.00 | 0.00 | 0.00 | 38 | 1005.6 |
| 20260506102029 | 67 | 205 | 0.0 | 0.0 | 0.00 | 0.00 | 0.00 | 35 | 1005.6 |
| 20260506101923 | 67 | 200 | 0.0 | 0.0 | 0.00 | 0.00 | 0.00 | 34 | 1005.5 |
| 20260506101816 | 66 | 200 | 0.0 | 0.0 | 0.00 | 0.00 | 0.00 | 34 | 1005.6 |
| 20260506101709 | 66 | 185 | 0.0 | 0.0 | 0.00 | 0.00 | 0.00 | 34 | 1005.6 |
| 20260506101602 | 66 | 220 | 0.0 | 0.0 | 0.00 | 0.00 | 0.00 | 34 | 1005.6 |
| 20260506101456 | 67 | 200 | 0.0 | 0.0 | 0.00 | 0.00 | 0.00 | 34 | 1005.6 |
| 20260506101349 | 67 | 210 | 0.0 | 0.0 | 0.00 | 0.00 | 0.00 | 33 | 1005.5 |
| 20260506101243 | 67 | 210 | 0.0 | 0.0 | 0.00 | 0.00 | 0.00 | 33 | 1005.6 |
| 20260506101138 | 67 | 215 | 5.2 | 0.0 | 0.00 | 0.00 | 0.00 | 33 | 1005.5 |
| 20260506101029 | 114 | 180 | 0.0 | 0.0 | 0.00 | 0.00 | 0.00 | 36 | 1005.4 |
| 20260506100923 | 113 | 220 | 0.0 | 0.0 | 0.00 | 0.00 | 0.00 | 34 | 1005.5 |
| 20260506100819 | 66 | 155 | 0.0 | 0.0 | 0.00 | 0.00 | 0.00 | 32 | 1005.6 |
| 20260506100710 | 67 | 220 | 0.0 | 0.0 | 0.00 | 0.00 | 0.00 | 32 | 1005.6 |
| 20260506100604 | 67 | 205 | 10.4 | 0.0 | 0.00 | 0.00 | 0.00 | 32 | 1005.6 |
| 20260506100457 | 67 | 220 | 0.0 | 0.0 | 0.00 | 0.00 | 0.00 | 32 | 1005.6 |
| 20260506100351 | 68 | 170 | 0.0 | 0.0 | 0.00 | 0.00 | 0.00 | 32 | 1005.6 |
| 20260506100244 | 68 | 205 | 0.0 | 0.0 | 0.00 | 0.00 | 0.00 | 32 | 1005.5 |